Regional Weather Roundup
Issued by NWS

Home | Current Version | Previous Version | Text Only | Print | Product List | Glossary Off
Versions: 1 2 3 4 5 6 7 8 9 10 11 12 13 14 15 16 17 18 19 20 21 22 23 24 25 26 27 28 29 30 31 32 33 34 35 36 37 38 39 40 41 42 43 44 45 46 47 48 49 50

000
ASUS43 KTOP 010259
RWRKS

WEATHER ROUNDUP FOR KANSAS
NATIONAL WEATHER SERVICE GOODLAND KS
900 PM CST SAT FEB 28 2015

NOTE:  "FAIR" INDICATES FEW OR NO CLOUDS BELOW 12,000 FEET WITH NO
SIGNIFICANT WEATHER AND/OR OBSTRUCTIONS TO VISIBILITY.

KSZ001>006-013>018-027>032-041>047-010400-
NORTHWEST KANSAS

CITY           SKY/WX    TMP DP  RH WIND       PRES   REMARKS
GOODLAND       CLOUDY    18  15  88 SE7       30.12R
HAYS           CLOUDY    19   9  63 SE5       30.26S
HILL CITY      CLOUDY    20  14  77 S5        30.26R
RUSSELL        CLOUDY    19  15  84 SE5       30.26S
$$

KSZ061>065-074>080-084>089-010400-
SOUTHWEST KANSAS

CITY           SKY/WX    TMP DP  RH WIND       PRES   REMARKS
DODGE CITY     CLOUDY    20  15  81 SE7       30.21R
ELKHART          N/A     19  14  81 SE10        N/A  WCI   7
GARDEN CITY    CLOUDY    19  16  88 SE8       30.17R
GREAT BEND     CLOUDY    19  12  73 SE5       30.28S
LIBERAL        CLOUDY    23  16  74 E10       30.17R WCI  12
$$

KSZ066>073-081>083-090>101-010400-
SOUTHEAST KANSAS

CITY           SKY/WX    TMP DP  RH WIND       PRES   REMARKS
CHANUTE        CLOUDY    24  22  91 NE3       30.36S
COFFEYVILLE    CLOUDY    25  23  92 E6        30.37F
HUTCHINSON     CLOUDY    21  16  81 E3        30.30S
MEDICINE LODGE   N/A     21  18  88 SE3       30.29S
NEWTON         CLOUDY    21  14  73 SE5       30.33R
PARSONS        CLOUDY    25  23  92 CALM      30.37S
WICHITA INTL   CLOUDY    23  18  81 SE6       30.31F
WICHITA JABRA  CLOUDY    21  18  88 E3        30.31F
WINFIELD       CLOUDY    23  22  96 E3        30.34S
$$

KSZ007>012-019>026-033>040-048>060-102>105-010400-
NORTHEAST KANSAS

CITY           SKY/WX    TMP DP  RH WIND       PRES   REMARKS
CONCORDIA      CLOUDY    20  16  84 S5        30.32R
EMPORIA        CLOUDY    21  19  92 E3        30.34S
LAWRENCE       CLOUDY    22  19  89 SE5       30.38S
MANHATTAN      CLOUDY    24  19  81 CALM      30.35S
OLATHE IND     FLURRIES  21  18  88 SE6       30.37F
OLATHE EXE     CLOUDY    22  18  85 SE6       30.36F
SALINA         CLOUDY    22  16  78 SE5       30.34R
TOPEKA BILLARD CLOUDY    23  18  81 SE5       30.38S
TOPEKA FORBES  CLOUDY    23  18  81 SE5       30.36R
$$



USA.gov is the U.S. government's official web portal to all federal, state and local government web resources and services.